星链-31864 (STARLINK-31864 )

导读 | 豆包AI

STARLINK-31864是美国SpaceX公司星链(Starlink)项目的第二代低轨通信卫星,属于2.0Mini版本,于北京时间2024年6月8日发射,是星链星座持续扩容的一部分。星链项目旨在为全球提供高速宽带互联网服务,该批次发射中还包含多颗支持手机直连业务的卫星,截至2024年6月,星链已发射超过6600颗卫星,持续推进全球覆盖与手机直连服务的部署。

基本信息
目录编号:
60025
目录名称:
STARLINK-31864
国际标识:
2024-111K
轨道中心:
EARTH
卫星名称:
星链-31864
卫星全名:
星链-31864 (STARLINK-31864 )
卫星状态:
已陨落 最后检测时间 2025-12-28
发射日期:
2024-06-08 UTC
国别 :
美国 (US)
星等 :
--
轨道信息
数据来源 国际轨道数据
星历时间: 2025-12-28T12:36:15+0800
轨道信息已过期77天
半长轴: 6569.988km
偏心率: 0.0007761
轨道倾角: 53.123°
近地点辐角 74.906°
升交点赤经 23.213°
平近点角 285.284°
近地点: 186.752km
远地点: 196.95km
周期: 88.330分钟
每日圈数: 16.302567
详细信息
固有亮度:
5
最大亮度:
1.5
卫星平台:
Starlink v2.0 mini
覆盖范围:
全球
运营商:
太空探索技术公司
运营商所在国:
美国
制造商(研发单位):
太空探索技术公司
制造商所在国:
美国
使用方式:
暂无
卫星简介
星链(Starlink)计划是由太空探索技术公司(SpaceX)提出的一个巨型低轨卫星互联网星座项目,计划在2019年至2024年间在太空搭建由约1.2万颗卫星组成的“星链”网络,其中1584颗将部署在地球上空550千米处的近地轨道,并从2020年开始工作。该卫星仍在工作。